Home   Weather   Township of Washington   Past weeks
Flag for USA

Past Weather in Township of Washington, Arkansas, USA — Yesterday and Last 2 Weeks

Now
89 °F

Scattered clouds.


Feels Like: 95 °F
Forecast: 91 / 69 °F
Wind: 9 mph from Southeast

Location: Adams Field

Current Time: Jun 20, 2019 at 4:36:53 pm

Latest Report: Jun 20, 2019 at 3:53 pm


Visibility: 10 mi

Pressure: 29.81 "Hg

Humidity: 55%

Dew Point: 71 °F

Location of Township of WashingtonLocation

Past Weather in Township of Washington — Graph

°F

Township of Washington Temperature Yesterday

Maximum temperature yesterday: 92 °F (at 3:53 pm)
Minimum temperature yesterday: 66 °F (at 9:44 pm)
Average temperature yesterday: 79 °F

High & Low Weather Summary for the Past Weeks

 TemperatureHumidityPressure
High92 °F (Jun 19, 3:53 pm)100% (Jun 19, 9:44 pm)30.21 "Hg (Jun 19, 9:44 pm)
Low57 °F (Jun 14, 4:53 am)30% (Jun 13, 1:53 pm)29.66 "Hg (Jun 19, 6:53 pm)
Average75 °F72%29.90 "Hg
* Reported Jun 5 2:53 pm — Jun 20 2:53 pm, Township of Washington. Weather by CustomWeather, © 2019

Note: Actual official high and low records may vary slightly from our data, if they occured in-between our weather recording intervals... More about our weather records

Advertising

Township of Washington Weather History for the Previous 24 Hours

Scroll right to see more
 ConditionsComfort  
Time TempWeatherWind HumidityBarometerVisibility
2:53 pm
Thu, Jun 20
89 °FScattered clouds.5 mph52%29.82 "Hg10 mi
1:53 pm88 °FScattered clouds.8 mph54%29.82 "Hg10 mi
12:53 pm86 °FScattered clouds.6 mph59%29.83 "Hg10 mi
11:53 am83 °FPassing clouds.8 mph68%29.83 "Hg10 mi
10:53 am81 °FScattered clouds.9 mph69%29.82 "Hg10 mi
9:53 am78 °FScattered clouds.8 mph74%29.82 "Hg10 mi
8:53 am74 °FPassing clouds.15 mph82%29.81 "Hg10 mi
7:53 am72 °FPassing clouds.10 mph84%29.80 "Hg10 mi
6:53 am69 °FScattered clouds.7 mph93%29.76 "Hg10 mi
5:53 am68 °FPassing clouds.8 mph96%29.75 "Hg10 mi
4:53 am69 °FPassing clouds.7 mph93%29.74 "Hg10 mi
3:53 am69 °FMostly cloudy.7 mph93%29.73 "Hg10 mi
2:53 am70 °FMostly cloudy.8 mph90%29.74 "Hg10 mi
1:53 am71 °FMostly cloudy.7 mph90%29.73 "Hg10 mi
12:53 am71 °FMostly cloudy.6 mph96%29.74 "Hg10 mi
11:53 pm
Wed, Jun 19
70 °FMostly cloudy.8 mph93%29.74 "Hg10 mi
10:53 pm71 °FPassing clouds.3 mph87%29.75 "Hg10 mi
9:53 pm68 °FThunderstorms. Mostly cloudy.12 mph93%29.76 "Hg7 mi
9:44 pm66 °FThunderstorms. Fog.15 mph100%29.76 "Hg4 mi
8:53 pm84 °FThunderstorms. Partly cloudy.8 mph70%29.66 "Hg10 mi
7:53 pm85 °FBroken clouds.6 mph65%29.68 "Hg10 mi
6:53 pm87 °FScattered clouds.8 mph57%29.66 "Hg10 mi
5:53 pm91 °FPassing clouds.10 mph45%29.67 "Hg10 mi
4:53 pm92 °FPassing clouds.12 mph44%29.69 "Hg10 mi
Weather by CustomWeather, © 2019

See weather overview